www.pogodaiklimat.ru

Погода и климат >> Архив погоды >> Россия >> Якутия >> Саскылах


АРХИВ ПОГОДЫ в Саскылахе

Время (UTC), дата Ветер
(напр.,м/с)
 
Видим.   Явления Облачность Т
(С)
Тd
(С)
f
(%)
Тe
(С)
Тes
(С)
Комфортность P
(гПа)
Po
(гПа)
Тmin
(С)
Tmax
(С)
R
(мм)
R24
(мм)
S
(см)
00 16.08 В 2 50 км ясно +10.2 +6.9 80 +9 +11 1027.0 1024.7 +5.4
03 16.08 Ю 3 50 км 1/0
[Ac cast]
+15.6 +4.4 47 +15 +19 1026.3 1024.0
06 16.08 В 2 50 км 3/3 1200 м
[Cu hum]
+16.8 +2.2 37 +17 +21 1024.8 1022.6
09 16.08 ЮВ 2 50 км ясно +17.7 +1.4 33 +18 +21 1023.9 1021.7
12 16.08 ЮВ 1 50 км ясно +16.1 +6.3 52 +17 +17 1023.5 1021.3 +17.7
15 16.08 ЮВ 2 50 км ясно +9.9 +5.7 75 +8 +8 1023.8 1021.5
18 16.08 ЮВ 3 н/о н/о +7.3 +4.5 82 +4 +4 1023.6 1021.6
21 16.08 ЮВ 4 50 км ясно +8.3 +4.6 77 +5 +5 1023.5 1021.6
00 17.08 ЮВ 3 50 км ясно +12.0 +3.9 58 +11 +13 1023.4 1021.2 +7.2
03 17.08 ЮВ 5 50 км ясно +17.7 +1.8 34 +17 +20 1022.7 1020.5
06 17.08 ЮВ 3 50 км ясно +20.1 +2.9 32 +21 +25 комфорт 1021.6 1019.4
09 17.08 ЮВ 3 50 км ясно +20.6 +4.7 35 +22 +22 комфорт 1020.5 1018.6
12 17.08 В 3 50 км ясно +15.9 +3.6 44 +16 +16 1021.2 1019.0 +20.6
15 17.08 ЮВ 3 50 км ясно +9.9 +4.1 67 +8 +8 1021.2 1019.2
18 17.08 ЮВ 2 50 км ясно +7.7 +3.3 74 +6 +6 1021.6 1019.3
21 17.08 ЮВ 2 50 км ясно +5.7 +2.8 82 +3 +3 1021.6 1019.3
00 18.08 ЮВ 3 50 км ясно +10.6 +4.2 65 +9 +11 1021.1 1018.8 +5.6
03 18.08 ЮВ 3 50 км ясно +17.3 +4.2 42 +17 +22 1020.0 1017.8
06 18.08 ЮВ 1 50 км ясно +19.6 +4.1 36 +21 +27 комфорт 1018.6 1016.4
09 18.08 ЮВ 4 50 км ясно +19.2 +3.7 36 +20 +21 1017.8 1015.6
12 18.08 В 5 50 км ясно +13.7 +6.8 63 +12 +12 1017.9 1015.7 +19.6
15 18.08 В 1 50 км ясно +7.9 +5.8 87 +7 +7 1018.1 1015.8
18 18.08 ЮВ 2 50 км ясно +5.7 +4.9 95 +3 +3 1017.3 1015.3
21 18.08 ЮВ 2 50 км ясно +4.3 +3.8 97 +1 +2 1017.4 1015.1
00 19.08 ЮВ 2 50 км ясно +8.4 +6.0 85 +7 +9 1017.4 1015.1 +4.2
03 19.08 ЮВ 2 50 км ясно +15.6 +7.5 59 +16 +21 1016.5 1014.2
06 19.08 ЮВ 1 50 км ясно +21.3 +4.3 33 +22 +27 комфорт 1016.2 1014.0
09 19.08 СВ 1 50 км ясно +22.6 +6.1 34 +23 +26 комфорт 1016.1 1014.0
12 19.08 В 1 50 км ясно +17.2 +9.0 59 +18 +18 1016.9 1015.0 +23.1
15 19.08 штиль 0 50 км ясно +9.8 +8.4 91 +9 +9 1018.5 1016.2
18 19.08 штиль 0 50 км ясно +7.1 +6.1 93 +6 +6 1019.8 1017.5
21 19.08 СЗ 3 50 км ясно +7.9 +7.4 97 +5 +5 1020.6 1018.3
00 20.08 СЗ 2 50 км 6/0
[]
+13.1 +9.3 78 +12 +14 1021.5 1019.3 +7.0
03 20.08 СЗ 6 50 км 6/0
[Ci fib]
+17.5 +11.0 66 +17 +18 1021.8 1019.6
06 20.08 СЗ 4 50 км 6/0
[Ci fib]
+17.7 +10.9 64 +17 +20 1022.7 1020.5
09 20.08 СЗ 6 50 км 10/10 1110 м
[Sc]
+16.4 +10.2 67 +15 +15 1023.4 1021.2
12 20.08 С 4 20 км слаб. дождь 10/0
[As op]
+11.2 +8.5 83 +9 +9 1025.6 1023.3 +17.7 0.8
15 20.08 С 2 50 км {дождь} 10/10 300 м
[Sc]
+9.4 +7.8 90 +8 +8 1026.8 1024.5
18 20.08 СВ 3 50 км 10/10 300 м
[Sc]
+7.2 +6.7 97 +4 +4 1027.5 1025.5
21 20.08 С 3 50 км 10/10 300 м
[Sc]
+6.5 +5.5 93 +3 +3 1027.8 1025.8
00 21.08 С 3 50 км 8/0
[Ac und]
+6.4 +4.8 89 +3 +4 1028.5 1026.2 +6.3 1
03 21.08 СЗ 4 50 км 10/10 570 м
[Sc]
+8.5 +5.1 79 +5 +5 1028.4 1026.1
06 21.08 С 4 50 км 8/4 930 м
[Sc Ac trans]
+13.1 +6.1 62 +12 +13 1027.0 1024.8
09 21.08 С 4 50 км 6/6 900 м
[Sc]
+12.4 +6.2 66 +11 +11 1026.8 1024.6
12 21.08 С 3 50 км 10/10 500 м
[Sc]
+9.9 +6.1 77 +8 +8 1026.8 1024.5 +13.1
15 21.08 СВ 2 50 км 10/10 300 м
[St]
+7.2 +6.1 93 +5 +5 1026.0 1024.0
18 21.08 С 3 50 км 10/10 300 м
[St]
+5.9 +5.2 95 +2 +2 1025.6 1023.3
21 21.08 С 2 50 км 10/10 360 м
[Sc]
+6.1 +5.2 94 +4 +4 1024.8 1022.5
00 22.08 С 3 50 км 8/8 300 м
[Sc]
+7.8 +5.3 84 +5 +5 1023.9 1021.6 +5.8
03 22.08 С 2 50 км 8/8 420 м
[Sc]
+9.2 +6.1 81 +8 +8 1022.7 1020.4
06 22.08 СВ 2 50 км 10/10 630 м
[Sc]
+10.4 +7.5 82 +9 +9 1020.9 1018.6
09 22.08 СВ 2 50 км 10/10 930 м
[Sc]
+11.0 +6.3 73 +10 +10 1020.0 1017.7
12 22.08 В 1 50 км 10/10 480 м
[Sc]
+10.8 +7.8 82 +11 +11 1018.9 1016.6 +11.0
15 22.08 В 2 4000 м дымка 10/10 210 м
[St]
+9.4 +8.1 92 +8 +8 1018.1 1015.8
18 22.08 штиль 0 4000 м дымка 10/10 210 м
[St]
+8.8 +7.9 94 +8 +8 1016.8 1014.5
21 22.08 штиль 0 50 км 10/10 270 м
[Sc]
+8.7 +7.5 92 +8 +8 1016.0 1013.7

 

Местоположение метеостанции Саскылах (Якутия, Россия): широта 71.97 долгота 114.00 высота над уровнем моря 17 м.

В архиве по умолчанию представлена погода в Саскылахе за последнюю неделю. Архивные данные за месяц целиком и за предыдущие месяцы, начиная с января 2011 года, Вы можете получить, выбрав интересующий диапазон дат из раскрывающегося списка и нажав кнопку "Ввод!".


*Определитесь, кто Вы:
робот инопланетянин человек

Внимание! Время в таблицах - всемирное. Для получения местного времени необходимо прибавить поправку, которая равна 9 ч.

Смотрите также архив погоды в соседних городах и на ближайших метеорологических станциях:

Погода в Анабаре (Якутия, Россия) (140 км)
Погода в Джалинде (Якутия, Россия) (205 км)
Погода на Усть-Оленеке (Якутия, Россия) (225 км)
Погода на Острове Преображения (Якутия, Россия) (302 км)
Погода в Тюмяти (Якутия, Россия) (327 км)
Погода в Оленеке (Якутия, Россия) (391 км)
Погода в Хатанге (Красноярский край, Россия) (396 км)
Погода в Сухане (Якутия, Россия) (406 км)
Погода на Столб Острове (Якутия, Россия) (421 км)
Погода в Кюсюре (Якутия, Россия) (497 км)

Пояснения к столбцам:

Ветер - указаны скорость ветра в м/с - средняя за 10 мин, порывы в срок и между сроками (в фигурных скобках) и направление, откуда дует ветер: С - северный, СВ - северо-восточный, В - восточный, ЮВ - юго-восточный, Ю - южный, ЮЗ - юго-западный, З - западный, СЗ - северо-западный.
Видимость - горизонтальная дальность видимости в метрах или километрах. При видимости от 1 до 10 км при отсутствии осадков обычно наблюдается дымка, при ухудшении видимости до 1 км и менее - туман. В сухую погоду видимость может ухудшаться дымом, пылью или мглою.
Явления - указаны атмосферные явления, наблюдавшиеся в срок или в последний час перед сроком; фигурными скобками обозначены явления, наблюдавшиеся между сроками (за 1-3 часа до срока); квадратными скобками обозначены град или гололедные отложения с указанием их диаметра в мм.
Облачность - указаны через наклонную черту общая и нижняя облачность в баллах и высота нижней границы облаков в метрах; квадратными скобками обозначены формы облаков: Ci - перистые, Cs - перисто-слоистые, Cc - перисто-кучевые, Ac - высококучевые, As - высокослоистые, Sc - слоисто-кучевые, Ns - слоисто-дождевые, Cu - кучевые, Cb - кучево-дождевые. Подробнее классификацию облаков см. в Атласе облаков (PDF).
T - Температура воздуха - температура, измеренная на высоте 2 м над землей.
Td - Температура точки росы - температура, при понижении до которой содержащийся в воздухе водяной пар достигнет насыщения.
f - Относительная влажность воздуха - влажноcть воздуха, измеренная на высоте 2 м над землей.
Te - Эффективная температура - температура, которую ощущает одетый по сезону человек в тени. Характеристика душности погоды. При расчете учитывается влияние влажности воздуха и скорости ветра на теплоощущения человека.
Tes - Эффективная температура на солнце - температура, которую ощущает человек, с поправкой на солнечный нагрев. Характеристика знойности погоды. Зависит от высоты солнца над горизонтом, облачности и скорости ветра. Ночью, в пасмурную погоду, а также при ветре 12 м/с и более поправка равна нулю.
P - Атмосферное давление - приведенное к уровню моря атмосферное давление.
Po - Атмосферное давление - измеренное на уровне метеостанции атмосферное давление.
Tmin - Минимальная температура - минимум температуры воздуха на высоте 2 м над землей.
Tmax - Максимальная температура - максимум температуры воздуха на высоте 2 м над землей.
R - Количество осадков - Количество выпавших осадков за период времени, мм. При наведении курсора мыши на число - период времени, за который выпало указанное количество осадков.
R24 - Количество осадков - Количество выпавших осадков за 24 часа, мм.
S - Снежный покров - Высота снежного покрова, см. При наведении курсора мыши на число - состояние снежного покрова и степень покрытия местности в баллах.